Aviation Digital Data Service (ADDS)

Output produced by METARs form (0051 UTC 21 November 2017)
found at http://www.aviationweather.gov/adds/metars/
 
OMAA 210000Z 11006KT CAVOK 20/07 Q1015 NOSIG
TAF OMAA 202300Z 2100/2206 11007KT 8000 NSC 
     BECMG 2103/2105 17010KT 
     BECMG 2110/2112 30010KT 
     BECMG 2116/2118 04006KT 
     BECMG 2122/2200 10005KT 
     BECMG 2203/2205 17012KT
       
OMAA 210000Z 11006KT CAVOK 20/07 Q1015 NOSIG
TAF OMAA 202300Z 2100/2206 11007KT 8000 NSC 
     BECMG 2103/2105 17010KT 
     BECMG 2110/2112 30010KT 
     BECMG 2116/2118 04006KT 
     BECMG 2122/2200 10005KT 
     BECMG 2203/2205 17012KT
       
OMAD 210000Z 10002KT CAVOK 20/10 Q1015 NOSIG
TAF OMAD 202300Z 2100/2206 10005KT 8000 NSC 
     BECMG 2103/2105 17010KT 
     BECMG 2110/2112 30010KT 
     BECMG 2116/2118 04006KT 
     BECMG 2121/2123 11005KT 
     BECMG 2203/2205 17012KT
       
OMAL 210000Z 09007KT CAVOK 20/06 Q1017 NOSIG
TAF OMAL 202300Z 2100/2206 11004KT 8000 NSC 
     BECMG 2102/2104 17014KT 
     BECMG 2108/2110 25006KT 
     BECMG 2111/2113 33010KT 
     BECMG 2118/2120 09006KT 
     BECMG 2201/2203 16012KT
       
OMDB 210000Z 11006KT 050V150 CAVOK 23/09 Q1016 NOSIG
TAF OMDB 202255Z 2100/2206 10005KT CAVOK 
     BECMG 2104/2106 18010KT 
     BECMG 2109/2111 33010KT 
     BECMG 2115/2117 10005KT 
     BECMG 2204/2206 18010KT
       
OMDW 210000Z 10004KT CAVOK 15/10 Q1016 NOSIG
OMFJ 210000Z 29005KT 8000 NSC 20/13 Q1016 RMK A3002
TAF OMFJ 202300Z 2100/2206 30008KT 8000 NSC 
     BECMG 2104/2106 11008KT 
     BECMG 2113/2115 VRB03KT 
     BECMG 2118/2120 27006KT
       
OMRK 210000Z 23003KT CAVOK 15/09 Q1016 A3001
TAF OMRK 202255Z 2100/2206 10007KT CAVOK 
     BECMG 2109/2111 34010KT 
     BECMG 2114/2116 10007KT
       
OMSJ 210000Z 10003KT CAVOK 17/09 Q1016
TAF OMSJ 202255Z 2100/2206 10005KT CAVOK 
     BECMG 2103/2105 18010KT 
     BECMG 2109/2111 33010KT 
     BECMG 2115/2117 12005KT 
     BECMG 2204/2206 18010KT
       
OMAL 210000Z 09007KT CAVOK 20/06 Q1017 NOSIG
TAF OMAL 202300Z 2100/2206 11004KT 8000 NSC 
     BECMG 2102/2104 17014KT 
     BECMG 2108/2110 25006KT 
     BECMG 2111/2113 33010KT 
     BECMG 2118/2120 09006KT 
     BECMG 2201/2203 16012KT
       
OMAD 210000Z 10002KT CAVOK 20/10 Q1015 NOSIG
TAF OMAD 202300Z 2100/2206 10005KT 8000 NSC 
     BECMG 2103/2105 17010KT 
     BECMG 2110/2112 30010KT 
     BECMG 2116/2118 04006KT 
     BECMG 2121/2123 11005KT 
     BECMG 2203/2205 17012KT
       
OMDB 210000Z 11006KT 050V150 CAVOK 23/09 Q1016 NOSIG
TAF OMDB 202255Z 2100/2206 10005KT CAVOK 
     BECMG 2104/2106 18010KT 
     BECMG 2109/2111 33010KT 
     BECMG 2115/2117 10005KT 
     BECMG 2204/2206 18010KT
       
OMFJ 210000Z 29005KT 8000 NSC 20/13 Q1016 RMK A3002
TAF OMFJ 202300Z 2100/2206 30008KT 8000 NSC 
     BECMG 2104/2106 11008KT 
     BECMG 2113/2115 VRB03KT 
     BECMG 2118/2120 27006KT
       
OMRK 210000Z 23003KT CAVOK 15/09 Q1016 A3001
TAF OMRK 202255Z 2100/2206 10007KT CAVOK 
     BECMG 2109/2111 34010KT 
     BECMG 2114/2116 10007KT
       
OMAA 210000Z 11006KT CAVOK 20/07 Q1015 NOSIG
TAF OMAA 202300Z 2100/2206 11007KT 8000 NSC 
     BECMG 2103/2105 17010KT 
     BECMG 2110/2112 30010KT 
     BECMG 2116/2118 04006KT 
     BECMG 2122/2200 10005KT 
     BECMG 2203/2205 17012KT
       
OMAD 210000Z 10002KT CAVOK 20/10 Q1015 NOSIG
TAF OMAD 202300Z 2100/2206 10005KT 8000 NSC 
     BECMG 2103/2105 17010KT 
     BECMG 2110/2112 30010KT 
     BECMG 2116/2118 04006KT 
     BECMG 2121/2123 11005KT 
     BECMG 2203/2205 17012KT
       
OMAL 210000Z 09007KT CAVOK 20/06 Q1017 NOSIG
TAF OMAL 202300Z 2100/2206 11004KT 8000 NSC 
     BECMG 2102/2104 17014KT 
     BECMG 2108/2110 25006KT 
     BECMG 2111/2113 33010KT 
     BECMG 2118/2120 09006KT 
     BECMG 2201/2203 16012KT
       
OMDB 210000Z 11006KT 050V150 CAVOK 23/09 Q1016 NOSIG
TAF OMDB 202255Z 2100/2206 10005KT CAVOK 
     BECMG 2104/2106 18010KT 
     BECMG 2109/2111 33010KT 
     BECMG 2115/2117 10005KT 
     BECMG 2204/2206 18010KT
       
OMDW 210000Z 10004KT CAVOK 15/10 Q1016 NOSIG
OMFJ 210000Z 29005KT 8000 NSC 20/13 Q1016 RMK A3002
TAF OMFJ 202300Z 2100/2206 30008KT 8000 NSC 
     BECMG 2104/2106 11008KT 
     BECMG 2113/2115 VRB03KT 
     BECMG 2118/2120 27006KT
       
OMRK 210000Z 23003KT CAVOK 15/09 Q1016 A3001
TAF OMRK 202255Z 2100/2206 10007KT CAVOK 
     BECMG 2109/2111 34010KT 
     BECMG 2114/2116 10007KT
       
OMSJ 210000Z 10003KT CAVOK 17/09 Q1016
TAF OMSJ 202255Z 2100/2206 10005KT CAVOK 
     BECMG 2103/2105 18010KT 
     BECMG 2109/2111 33010KT 
     BECMG 2115/2117 12005KT 
     BECMG 2204/2206 18010KT
       
OMSJ 210000Z 10003KT CAVOK 17/09 Q1016
TAF OMSJ 202255Z 2100/2206 10005KT CAVOK 
     BECMG 2103/2105 18010KT 
     BECMG 2109/2111 33010KT 
     BECMG 2115/2117 12005KT 
     BECMG 2204/2206 18010KT
       
OMAA 210000Z 11006KT CAVOK 20/07 Q1015 NOSIG
TAF OMAA 202300Z 2100/2206 11007KT 8000 NSC 
     BECMG 2103/2105 17010KT 
     BECMG 2110/2112 30010KT 
     BECMG 2116/2118 04006KT 
     BECMG 2122/2200 10005KT 
     BECMG 2203/2205 17012KT
       
OMAD 210000Z 10002KT CAVOK 20/10 Q1015 NOSIG
TAF OMAD 202300Z 2100/2206 10005KT 8000 NSC 
     BECMG 2103/2105 17010KT 
     BECMG 2110/2112 30010KT 
     BECMG 2116/2118 04006KT 
     BECMG 2121/2123 11005KT 
     BECMG 2203/2205 17012KT
       
OMAL 210000Z 09007KT CAVOK 20/06 Q1017 NOSIG
TAF OMAL 202300Z 2100/2206 11004KT 8000 NSC 
     BECMG 2102/2104 17014KT 
     BECMG 2108/2110 25006KT 
     BECMG 2111/2113 33010KT 
     BECMG 2118/2120 09006KT 
     BECMG 2201/2203 16012KT
       
OMDB 210000Z 11006KT 050V150 CAVOK 23/09 Q1016 NOSIG
TAF OMDB 202255Z 2100/2206 10005KT CAVOK 
     BECMG 2104/2106 18010KT 
     BECMG 2109/2111 33010KT 
     BECMG 2115/2117 10005KT 
     BECMG 2204/2206 18010KT
       
OMDW 210000Z 10004KT CAVOK 15/10 Q1016 NOSIG
OMFJ 210000Z 29005KT 8000 NSC 20/13 Q1016 RMK A3002
TAF OMFJ 202300Z 2100/2206 30008KT 8000 NSC 
     BECMG 2104/2106 11008KT 
     BECMG 2113/2115 VRB03KT 
     BECMG 2118/2120 27006KT
       
OMRK 210000Z 23003KT CAVOK 15/09 Q1016 A3001
TAF OMRK 202255Z 2100/2206 10007KT CAVOK 
     BECMG 2109/2111 34010KT 
     BECMG 2114/2116 10007KT
       
OMSJ 210000Z 10003KT CAVOK 17/09 Q1016
TAF OMSJ 202255Z 2100/2206 10005KT CAVOK 
     BECMG 2103/2105 18010KT 
     BECMG 2109/2111 33010KT 
     BECMG 2115/2117 12005KT 
     BECMG 2204/2206 18010KT